TimeEST,TemperatureF,Dew PointF,Humidity,Sea Level PressureIn,VisibilityMPH,Wind Direction,Wind SpeedMPH,Gust SpeedMPH,PrecipitationIn,Events,Conditions,WindDirDegrees,DateUTC
12:53 AM,35.1,28.0,76,30.38,8.0,Calm,Calm,-,N/A,,Clear,0,2012-12-01 05:53:00
1:53 AM,34.0,28.0,79,30.38,7.0,Calm,Calm,-,N/A,,Clear,0,2012-12-01 06:53:00
2:53 AM,32.0,27.0,82,30.38,7.0,Calm,Calm,-,N/A,,Clear,0,2012-12-01 07:53:00
3:53 AM,32.0,28.0,85,30.39,7.0,North,9.2,-,N/A,,Clear,10,2012-12-01 08:53:00
4:53 AM,30.9,27.0,85,30.39,7.0,North,3.5,-,N/A,,Clear,360,2012-12-01 09:53:00
5:53 AM,30.9,28.0,89,30.42,6.0,North,6.9,-,N/A,,Clear,360,2012-12-01 10:53:00
7:51 AM,32.0,28.4,87,30.41,4.0,North,3.5,-,N/A,,Scattered Clouds,360,2012-12-01 12:51:00
7:53 AM,32.0,28.9,88,30.46,4.0,Calm,Calm,-,N/A,,Scattered Clouds,0,2012-12-01 12:53:00
8:12 AM,32.0,30.2,93,30.41,4.0,Calm,Calm,-,N/A,,Mostly Cloudy,0,2012-12-01 13:12:00
8:53 AM,34.0,32.0,92,30.48,4.0,North,6.9,-,N/A,,Mostly Cloudy,360,2012-12-01 13:53:00
9:53 AM,37.9,35.1,89,30.48,3.0,NNE,4.6,-,N/A,,Overcast,20,2012-12-01 14:53:00
10:09 AM,39.2,37.4,93,30.43,2.5,North,4.6,-,N/A,,Overcast,360,2012-12-01 15:09:00
10:53 AM,41.0,37.0,86,30.47,3.0,Calm,Calm,-,N/A,,Overcast,0,2012-12-01 15:53:00
11:25 AM,41.0,37.4,87,30.42,2.5,NW,8.1,-,N/A,,Overcast,320,2012-12-01 16:25:00
11:53 AM,43.0,37.9,82,30.45,3.0,Calm,Calm,-,N/A,,Haze,0,2012-12-01 16:53:00
1:04 PM,44.6,37.4,76,30.37,3.0,NNW,6.9,-,N/A,,Haze,340,2012-12-01 18:04:00
1:53 PM,45.0,37.9,76,30.41,3.0,NW,5.8,-,N/A,,Haze,320,2012-12-01 18:53:00
2:53 PM,45.0,37.9,76,30.40,3.0,North,8.1,-,N/A,,Haze,350,2012-12-01 19:53:00
3:53 PM,44.1,37.9,79,30.40,3.0,North,6.9,-,N/A,,Haze,10,2012-12-01 20:53:00
4:53 PM,39.9,37.0,89,30.42,3.0,North,6.9,-,N/A,,Clear,360,2012-12-01 21:53:00
5:10 PM,39.2,35.6,87,30.37,2.5,NNE,5.8,-,N/A,,Clear,20,2012-12-01 22:10:00
5:53 PM,37.9,36.0,93,30.43,2.5,North,3.5,-,N/A,,Clear,360,2012-12-01 22:53:00
6:00 PM,37.4,35.6,93,30.38,3.0,North,3.5,-,N/A,,Clear,350,2012-12-01 23:00:00
6:53 PM,37.0,35.1,93,30.44,3.0,North,6.9,-,N/A,,Clear,350,2012-12-01 23:53:00
7:53 PM,35.1,34.0,96,30.45,3.0,NW,5.8,-,N/A,,Clear,320,2012-12-02 00:53:00
8:53 PM,34.0,33.1,96,30.45,2.5,NW,5.8,-,N/A,,Clear,310,2012-12-02 01:53:00
9:53 PM,34.0,33.1,96,30.43,2.5,NNW,6.9,-,N/A,,Clear,340,2012-12-02 02:53:00
10:53 PM,33.1,32.0,96,30.42,2.0,NW,3.5,-,N/A,,Clear,320,2012-12-02 03:53:00
11:01 PM,32.0,32.0,100,30.37,1.5,NW,3.5,-,N/A,,Partly Cloudy,320,2012-12-02 04:01:00
11:09 PM,32.0,32.0,100,30.36,0.8,NNW,3.5,-,N/A,,Mist,340,2012-12-02 04:09:00
11:17 PM,32.0,32.0,100,30.36,0.5,NNW,3.5,-,N/A,Fog,Fog,330,2012-12-02 04:17:00
11:25 PM,30.2,30.2,100,30.37,0.2,NNW,4.6,-,N/A,Fog,Light Freezing Fog,330,2012-12-02 04:25:00
11:33 PM,30.2,30.2,100,30.37,0.2,NW,5.8,-,N/A,Fog,Light Freezing Fog,320,2012-12-02 04:33:00
11:43 PM,32.0,32.0,100,30.37,0.2,NNW,4.6,-,N/A,Fog,Fog,330,2012-12-02 04:43:00
11:53 PM,32.0,32.0,100,30.42,0.2,NNW,6.9,-,N/A,Fog,Fog,330,2012-12-02 04:53:00